"Pseudo-MPEC" for P117hdF

Created 2020 Oct 18 13:07:33 UT using Find_Orb

Click here for an explanation of pseudo-MPECs

 
 Astrometry: 
     P117hdF  C2020 10 06hks$.axpGfm]us[XvAstrometryLqcRI$@=cSVP6Dredacted;AcF51
     P117hdF  C2020 10 06)JTKAGLXBEmTclicku@K^rNlkZE!05y+y!4#0hO+5UcWTW1Ow6gIF51
     P117hdF  C2020 10 06d);0c;here1sP1$)forf9-v'\'qkkNEH:NyP;HoDexplanation=F51

Station data:
(F51) Pan-STARRS 1, Haleakala  (N20.707235 W156.255910)  US/Hawaii.
   Observers N. Primak, A. Schultz, S. Watters, J. Thiel, T. Goggia. Measurer
   PS1 Science Consortium. 1.8-m Ritchey-Chrétien + CCD.

Orbital elements:  P117hdF
   Perihelion 2020 Jan 10.088391 +/- 124 TT =  2:07:17 (JD 2458858.588391)
Epoch 2020 Oct  6.0 TT = JDT 2459128.5   Earth MOID: 0.3108   Ma: 0.0326
M 166.26093885 +/- 140              (J2000 ecliptic)          AutoNEOCP
n   0.61598291 +/- 0.344            Peri.  229.87987 +/- 80
a   1.36801315 +/- 0.509            Node   341.35453 +/- 57
e   0.0648963 +/- 0.28              Incl.   19.08427 +/- 22
P   1.60/584.42d           H 20.3   G  0.15   U 12.0  SR
q 1.27923412 +/- 0.614    Q 1.45679217 +/- 34.1
From 3 observations 2020 Oct. 6 (51.0 min); mean residual 0".12
Residuals in arcseconds: 
201006 F51  .04+  .07-    201006 F51  .13-  .20+    201006 F51  .08+  .13-    

Ephemerides (geocentric):
Date (UTC) HH   RA              Dec         delta   r     elong  mag " sig PA
---- -- -- --  -------------   -----------  ------ ------ -----  --- ---- ---
2020 10 18 13  00 06 50.136   +43 20 38.65  .53820 1.4564 141.5 20.9  35d 145
2020 10 18 14  00 06 43.400   +43 20 41.35  .53829 1.4564 141.5 20.9  35d 145
2020 10 18 15  00 06 36.670   +43 20 43.97  .53837 1.4564 141.4 20.9  35d 145
2020 10 18 16  00 06 29.947   +43 20 46.49  .53846 1.4564 141.4 20.9  35d 145
2020 10 18 17  00 06 23.231   +43 20 48.92  .53855 1.4564 141.4 20.9  35d 145
2020 10 18 18  00 06 16.522   +43 20 51.25  .53864 1.4564 141.4 20.9  35d 145
2020 10 18 19  00 06 09.819   +43 20 53.50  .53872 1.4564 141.4 20.9  35d 145
2020 10 18 20  00 06 03.123   +43 20 55.65  .53881 1.4564 141.4 20.9  35d 145
2020 10 18 21  00 05 56.434   +43 20 57.70  .53890 1.4564 141.3 20.9  35d 145
2020 10 18 22  00 05 49.751   +43 20 59.66  .53899 1.4564 141.3 20.9  35d 145
2020 10 18 23  00 05 43.076   +43 21 01.53  .53908 1.4564 141.3 20.9  35d 145
2020 10 19 00  00 05 36.407   +43 21 03.31  .53916 1.4564 141.3 20.9  35d 145
2020 10 19 01  00 05 29.745   +43 21 05.00  .53925 1.4564 141.3 20.9  35d 145
2020 10 19 02  00 05 23.089   +43 21 06.59  .53934 1.4564 141.3 20.9  35d 145
2020 10 19 03  00 05 16.441   +43 21 08.10  .53943 1.4564 141.3 20.9  35d 145
2020 10 19 04  00 05 09.800   +43 21 09.51  .53952 1.4564 141.2 20.9  35d 145
2020 10 19 05  00 05 03.165   +43 21 10.83  .53961 1.4564 141.2 20.9  35d 145
2020 10 19 06  00 04 56.537   +43 21 12.05  .53970 1.4564 141.2 20.9  35d 145
2020 10 19 07  00 04 49.917   +43 21 13.19  .53979 1.4564 141.2 20.9  35d 145
2020 10 19 08  00 04 43.303   +43 21 14.23  .53988 1.4564 141.2 20.9  35d 145
2020 10 19 09  00 04 36.697   +43 21 15.19  .53997 1.4564 141.2 20.9  35d 145
2020 10 19 10  00 04 30.097   +43 21 16.05  .54007 1.4564 141.1 20.9  35d 145
2020 10 19 11  00 04 23.505   +43 21 16.83  .54016 1.4564 141.1 20.9  35d 145
2020 10 19 12  00 04 16.919   +43 21 17.51  .54025 1.4564 141.1 20.9  36d 145
2020 10 19 13  00 04 10.341   +43 21 18.10  .54034 1.4564 141.1 20.9  36d 145
2020 10 19 14  00 04 03.770   +43 21 18.61  .54043 1.4564 141.1 20.9  36d 145
2020 10 19 15  00 03 57.205   +43 21 19.02  .54053 1.4565 141.1 20.9  36d 145
2020 10 19 16  00 03 50.649   +43 21 19.34  .54062 1.4565 141.0 20.9  36d 145
2020 10 19 17  00 03 44.099   +43 21 19.58  .54071 1.4565 141.0 20.9  36d 145
2020 10 19 18  00 03 37.556   +43 21 19.72  .54081 1.4565 141.0 20.9  36d 145
2020 10 19 19  00 03 31.021   +43 21 19.78  .54090 1.4565 141.0 20.9  36d 145
2020 10 19 20  00 03 24.493   +43 21 19.74  .54099 1.4565 141.0 20.9  36d 145
2020 10 19 21  00 03 17.972   +43 21 19.62  .54109 1.4565 140.9 20.9  36d 145
2020 10 19 22  00 03 11.459   +43 21 19.41  .54118 1.4565 140.9 20.9  36d 145
2020 10 19 23  00 03 04.952   +43 21 19.11  .54128 1.4565 140.9 20.9  36d 145
2020 10 20 00  00 02 58.454   +43 21 18.72  .54137 1.4565 140.9 20.9  36d 145
2020 10 20 01  00 02 51.962   +43 21 18.25  .54147 1.4565 140.9 20.9  36d 145
2020 10 20 02  00 02 45.478   +43 21 17.68  .54156 1.4565 140.9 20.9  36d 145
2020 10 20 03  00 02 39.001   +43 21 17.03  .54166 1.4565 140.8 20.9  36d 145
2020 10 20 04  00 02 32.532   +43 21 16.29  .54175 1.4565 140.8 20.9  36d 145
2020 10 20 05  00 02 26.070   +43 21 15.47  .54185 1.4565 140.8 20.9  36d 145
2020 10 20 06  00 02 19.615   +43 21 14.55  .54194 1.4565 140.8 20.9  36d 145
2020 10 20 07  00 02 13.168   +43 21 13.55  .54204 1.4565 140.8 20.9  36d 145
2020 10 20 08  00 02 06.729   +43 21 12.47  .54214 1.4565 140.8 20.9  36d 145
2020 10 20 09  00 02 00.297   +43 21 11.29  .54224 1.4565 140.7 20.9  36d 145
2020 10 20 10  00 01 53.872   +43 21 10.03  .54233 1.4565 140.7 20.9  36d 145
2020 10 20 11  00 01 47.455   +43 21 08.69  .54243 1.4565 140.7 20.9  36d 145
2020 10 20 12  00 01 41.046   +43 21 07.25  .54253 1.4565 140.7 20.9  36d 145